Weather reports worldwide

Advertisment
Lyon/Satolas, France (7481): temperature & dewpoint: 09.10.2019 20:00:00 - 15.10.2019 20:00:00 (CEST)Lyon/Satolas, France (7481): temperature 5cm: 09.10.2019 20:00:00 - 15.10.2019 20:00:00 (CEST)Lyon/Satolas, France (7481): temperature -20cm & temperature -100cm: 09.10.2019 20:00:00 - 15.10.2019 20:00:00 (CEST)Lyon/Satolas, France (7481): wind speed & gusts: 09.10.2019 20:00:00 - 15.10.2019 20:00:00 (CEST)Lyon/Satolas, France (7481): wind direction: 09.10.2019 20:00:00 - 15.10.2019 20:00:00 (CEST)Lyon/Satolas, France (7481): reduced air pressure: 09.10.2019 20:00:00 - 15.10.2019 20:00:00 (CEST)Lyon/Satolas, France (7481): visibility: 09.10.2019 20:00:00 - 15.10.2019 20:00:00 (CEST)Lyon/Satolas, France (7481): precipitation: 09.10.2019 20:00:00 - 15.10.2019 20:00:00 (CEST)
Date & Time tt [°C] td [°C] tt 5cm [°C] tt -20cm [°C] tt -100cm [°C] ff [km/h] ff [kn] fx [km/h] fx [kn] dd ppp [hPa] vv [km] rr [mm]
15.10.2019 20:00:00 - - - - - - - - - - - - -
15.10.2019 19:00:00 12,0 10,2 11,9 16,6 18,1 9 5 21 11 SE 1015,8 50 0,0
15.10.2019 18:00:00 12,7 10,4 12,8 16,6 18,1 9 5 15 8 E 1014,7 50 0,0
15.10.2019 17:00:00 12,4 9,9 11,2 16,6 18,1 5 3 17 9 NNW 1014,0 50 0,0
15.10.2019 16:00:00 11,1 8,8 10,9 16,6 18,1 17 9 45 24 NW 1013,3 40 3,2
15.10.2019 15:00:00 14,6 13,0 14,7 16,5 18,1 11 6 17 9 SE 1011,5 40 0,0
15.10.2019 14:00:00 13,8 12,0 13,4 16,4 18,1 4 2 9 5 S 1011,3 40 0,6
15.10.2019 13:00:00 13,4 12,5 13,4 16,4 18,1 7 4 10 5 SW 1011,9 20 0,8
15.10.2019 12:00:00 12,8 12,3 12,2 16,5 18,1 6 3 22 12 WSW 1011,9 10 1,8
15.10.2019 11:00:00 12,4 11,5 12,2 16,5 18,1 20 11 34 18 WNW 1011,1 2,0 3,2
15.10.2019 10:00:00 13,2 12,9 12,9 16,6 18,1 12 6 35 19 ESE 1010,0 10 3,8
15.10.2019 09:00:00 13,1 12,8 12,8 16,9 18,1 8 5 22 12 E 1010,5 2,6 10,0
15.10.2019 08:00:00 13,0 12,7 12,8 17,2 18,1 16 9 29 16 NNE 1008,3 3,5 9,9
15.10.2019 07:00:00 13,6 13,0 13,3 17,6 18,1 11 6 32 17 NNE 1010,2 1,5 12,9
15.10.2019 06:00:00 17,1 14,9 16,4 17,7 18,1 19 11 31 17 WNW 1007,8 25 0,0
15.10.2019 05:00:00 19,1 13,3 16,7 17,7 18,1 10 5 20 11 ESE 1005,9 20 0,0
15.10.2019 04:00:00 19,0 13,8 17,0 17,8 18,1 9 5 18 10 SE 1006,6 20 0,0
15.10.2019 03:00:00 19,0 13,0 17,5 17,9 18,0 13 7 20 11 SE 1007,0 30 0,0
15.10.2019 02:00:00 19,2 13,4 17,7 17,9 18,0 8 4 20 11 SSE 1007,8 30 0,0
15.10.2019 01:00:00 19,3 13,9 18,3 18,0 18,0 13 7 25 14 SSE 1008,6 30 0,0
15.10.2019 00:00:00 19,7 14,1 18,8 18,1 18,1 13 7 32 17 SE 1009,2 30 0,0
14.10.2019 23:00:00 20,5 14,2 19,3 18,1 18,0 11 6 43 23 S 1009,9 30 0,0
14.10.2019 22:00:00 20,9 14,5 20,1 18,2 18,0 29 15 64 35 S 1009,9 30 0,0
14.10.2019 21:00:00 21,2 14,8 20,2 18,2 18,0 40 21 65 35 S 1009,8 35 0,0
14.10.2019 20:00:00 21,4 14,8 20,4 18,2 18,0 23 12 49 26 S 1010,6 35 0,0
14.10.2019 19:00:00 22,4 14,5 21,5 18,2 18,0 23 13 48 26 S 1010,6 40 0,0
14.10.2019 18:00:00 23,3 14,0 23,2 18,1 18,0 29 16 61 33 S 1010,4 40 0,0
14.10.2019 17:00:00 24,3 13,5 25,1 17,9 18,0 29 16 66 35 S 1010,5 40 0,0
14.10.2019 16:00:00 24,9 12,5 26,4 17,7 18,0 37 20 66 36 S 1010,4 40 0,0
14.10.2019 15:00:00 24,8 11,7 26,2 17,4 18,0 38 21 70 38 S 1011,3 40 0,0
14.10.2019 14:00:00 24,1 11,8 25,5 17,1 18,0 34 18 66 35 S 1012,6 15 0,0
14.10.2019 13:00:00 23,4 11,8 24,1 16,8 18,0 42 23 76 41 S 1013,6 40 0,0
14.10.2019 12:00:00 22,6 11,9 24,3 16,6 18,0 43 23 69 38 S 1014,9 50 0,0
14.10.2019 11:00:00 21,3 12,2 22,6 16,5 18,0 40 21 67 36 S 1015,2 50 0,0
14.10.2019 10:00:00 20,1 11,8 20,1 16,5 18,0 33 18 61 33 S 1015,2 50 0,0
14.10.2019 09:00:00 18,7 12,0 16,4 16,6 18,0 30 16 50 27 S 1015,3 50 0,0
14.10.2019 08:00:00 17,6 11,8 15,4 16,8 18,0 20 11 41 22 S 1015,1 50 0,0
14.10.2019 07:00:00 17,0 12,3 15,8 16,9 18,0 9 5 27 15 SE 1015,3 40 0,0
14.10.2019 06:00:00 17,4 12,7 16,2 16,9 18,0 14 8 24 13 SE 1015,7 40 0,0
14.10.2019 05:00:00 18,1 13,0 16,7 17,1 18,0 12 7 30 16 S 1015,8 40 0,0
14.10.2019 04:00:00 18,0 13,1 16,6 17,1 18,0 9 5 45 24 SE 1016,4 40 0,0
14.10.2019 03:00:00 18,4 13,3 17,4 17,2 18,0 23 12 64 34 S 1016,7 40 0,0
14.10.2019 02:00:00 18,8 13,2 17,7 17,3 18,0 38 20 68 37 S 1016,4 40 0,0
14.10.2019 01:00:00 18,9 13,7 17,1 17,4 18,0 29 15 54 29 S 1016,9 40 0,0
14.10.2019 00:00:00 19,3 13,7 18,0 17,5 18,0 18 10 49 26 SSE 1017,4 40 0,0
13.10.2019 23:00:00 19,7 13,4 18,4 17,6 18,0 15 8 33 18 S 1017,4 40 0,0
13.10.2019 22:00:00 20,0 13,0 18,9 17,7 18,0 12 6 32 17 S 1017,0 40 0,0
13.10.2019 21:00:00 20,4 12,4 19,0 17,8 18,0 13 7 22 12 S 1016,4 50 0,0
13.10.2019 20:00:00 20,9 11,5 19,4 17,9 18,0 12 7 29 16 SSW 1016,2 50 0,0
13.10.2019 19:00:00 21,8 11,5 20,5 17,9 18,0 8 5 43 23 SSW 1015,6 50 0,0
13.10.2019 18:00:00 23,3 11,4 23,1 17,8 18,0 21 12 42 23 S 1015,3 50 0,0
13.10.2019 17:00:00 23,9 11,2 25,6 17,7 18,0 20 11 49 27 S 1015,3 40 0,0
13.10.2019 16:00:00 24,6 10,8 26,5 17,4 18,0 24 13 53 29 S 1015,6 40 0,0
13.10.2019 15:00:00 24,2 10,1 25,4 17,1 18,0 24 13 58 32 S 1015,9 40 0,0
13.10.2019 14:00:00 23,3 8,9 25,1 16,9 18,0 34 18 54 29 S 1016,7 40 0,0
13.10.2019 13:00:00 23,0 10,4 22,9 16,6 18,0 25 14 62 34 S 1017,7 40 0,0
13.10.2019 12:00:00 21,9 12,4 23,3 16,4 18,0 32 18 68 37 S 1017,8 40 0,0
13.10.2019 11:00:00 20,3 13,0 18,7 16,3 18,0 23 12 43 23 S 1017,6 40 0,0
13.10.2019 10:00:00 18,7 12,9 17,9 16,4 18,0 21 12 37 20 S 1017,5 40 0,0
13.10.2019 09:00:00 17,9 13,4 17,1 16,4 18,0 16 9 38 21 S 1017,0 40 0,0
13.10.2019 08:00:00 17,7 13,8 16,9 16,4 18,0 16 9 44 24 SE 1016,6 40 0,0
13.10.2019 07:00:00 18,1 14,0 17,2 16,4 18,0 23 12 56 30 SSE 1016,6 40 0,0
13.10.2019 06:00:00 18,6 13,9 17,8 16,5 18,0 26 14 47 25 S 1016,6 40 0,0
13.10.2019 05:00:00 18,5 14,2 17,5 16,5 18,0 24 13 49 26 S 1017,1 40 0,0
13.10.2019 04:00:00 18,5 14,4 17,7 16,5 18,0 23 12 42 23 SSE 1017,0 40 0,0
13.10.2019 03:00:00 18,7 14,2 17,7 16,6 18,0 16 9 35 19 SSE 1017,5 40 0,0
13.10.2019 02:00:00 18,8 13,9 17,7 16,6 18,0 17 9 64 35 SE 1017,9 40 0,0
13.10.2019 01:00:00 19,0 14,3 18,3 16,6 18,0 28 15 68 37 SSE 1017,7 40 0,0
13.10.2019 00:00:00 19,2 14,2 18,7 16,6 18,1 38 20 70 38 S 1017,5 40 0,0
12.10.2019 23:00:00 19,3 14,3 18,6 16,6 18,0 44 24 80 43 S 1017,1 40 0,0
12.10.2019 22:00:00 19,1 14,4 18,5 16,6 18,0 43 23 72 39 S 1017,1 40 0,0
12.10.2019 21:00:00 19,0 14,9 18,5 16,6 18,0 40 21 67 36 S 1017,5 40 0,0
12.10.2019 20:00:00 19,2 14,9 18,9 16,6 18,1 34 19 75 41 S 1017,6 40 0,0
12.10.2019 19:00:00 19,3 15,0 19,0 16,6 18,1 48 26 78 42 S 1016,7 40 0,0
12.10.2019 18:00:00 19,5 14,9 19,3 16,5 18,1 42 23 74 40 S 1016,7 30 0,0
12.10.2019 17:00:00 19,6 14,8 20,0 16,4 18,1 42 23 78 42 S 1016,9 30 0,0
12.10.2019 16:00:00 19,5 14,7 20,4 16,2 18,1 41 22 78 42 S 1017,2 35 0,0
12.10.2019 15:00:00 19,5 14,9 19,6 16,1 18,1 40 22 67 36 SSW 1017,7 35 0,0
12.10.2019 14:00:00 19,3 14,5 19,6 15,9 18,1 36 19 63 34 S 1018,4 35 0,0
12.10.2019 13:00:00 20,5 14,4 21,0 15,7 18,1 15 8 65 35 SSW 1018,8 35 0,0
12.10.2019 12:00:00 20,3 14,2 22,2 15,4 18,1 38 21 69 37 S 1017,8 35 0,0
12.10.2019 11:00:00 20,1 13,8 20,1 15,2 18,1 31 17 58 31 SSE 1017,6 40 0,0
12.10.2019 10:00:00 18,9 12,9 19,0 15,2 18,1 24 13 53 29 S 1017,5 40 0,0
12.10.2019 09:00:00 17,6 12,1 15,8 15,3 18,1 20 11 40 22 SSE 1017,7 40 0,0
12.10.2019 08:00:00 16,7 12,0 15,2 15,3 18,1 23 12 40 22 SSE 1017,6 40 0,0
12.10.2019 07:00:00 16,3 11,7 15,0 15,3 18,1 18 10 38 20 SE 1018,0 40 0,0
12.10.2019 06:00:00 16,8 11,5 15,8 15,4 18,1 23 12 42 23 SSE 1017,8 40 0,0
12.10.2019 05:00:00 17,3 11,6 16,2 15,4 18,1 23 13 45 24 SSE 1017,8 40 0,0
12.10.2019 04:00:00 17,8 11,1 16,8 15,5 18,1 25 13 60 32 S 1018,1 40 0,0
12.10.2019 03:00:00 17,7 11,0 16,4 15,5 18,1 32 17 52 28 S 1018,5 40 0,0
12.10.2019 02:00:00 17,4 11,0 16,4 15,6 18,2 30 16 61 33 S 1018,6 40 0,0
12.10.2019 01:00:00 17,3 11,6 16,5 15,7 18,2 29 16 55 30 S 1018,6 40 0,0
12.10.2019 00:00:00 17,8 10,4 16,8 15,7 18,2 29 16 52 28 S 1018,7 40 0,0
11.10.2019 23:00:00 18,4 10,2 17,4 15,8 18,2 27 14 54 29 S 1018,5 40 0,0
11.10.2019 22:00:00 18,8 10,9 17,9 15,9 18,2 30 16 50 27 S 1018,1 40 0,0
11.10.2019 21:00:00 19,2 9,9 18,0 16,0 18,2 22 12 42 23 S 1017,7 40 0,0
11.10.2019 20:00:00 19,9 9,5 18,6 16,0 18,2 22 12 43 23 S 1017,6 40 0,0
11.10.2019 19:00:00 20,7 8,3 19,6 16,1 18,2 22 12 45 25 S 1017,1 40 0,0
11.10.2019 18:00:00 21,8 7,2 21,4 16,0 18,2 25 14 46 25 S 1017,1 40 0,0
11.10.2019 17:00:00 22,3 8,0 23,9 15,8 18,2 24 13 54 29 S 1017,0 40 0,0
11.10.2019 16:00:00 22,4 8,9 24,2 15,5 18,3 24 13 45 24 S 1017,5 40 0,0
11.10.2019 15:00:00 21,9 9,8 23,0 15,1 18,3 24 13 51 27 S 1018,4 40 0,0
11.10.2019 14:00:00 20,5 9,4 22,4 14,7 18,3 27 15 48 26 S 1019,5 40 0,0
11.10.2019 13:00:00 18,7 9,7 19,1 14,3 18,3 15 8 25 14 SSE 1020,8 40 0,0
11.10.2019 12:00:00 15,9 9,6 18,2 14,0 18,3 11 6 19 11 SE 1021,8 40 0,0
11.10.2019 11:00:00 13,3 8,6 15,9 13,9 18,3 14 8 20 11 SE 1022,5 40 0,0
11.10.2019 10:00:00 11,0 8,0 11,8 14,0 18,3 11 6 21 11 SE 1023,0 20 0,0
11.10.2019 09:00:00 9,0 7,3 7,5 14,1 18,3 14 8 22 12 SE 1022,8 20 0,0
11.10.2019 08:00:00 8,0 6,6 7,5 14,3 18,3 8 5 18 10 SE 1022,3 20 0,0
11.10.2019 07:00:00 8,8 7,4 7,8 14,5 18,3 11 6 15 8 SSE 1022,1 12 0,0
11.10.2019 06:00:00 8,9 7,7 7,0 14,7 18,3 6 3 8 5 S 1022,1 12 0,0
11.10.2019 05:00:00 8,6 7,7 6,5 14,9 18,3 2 1 11 6 W 1022,7 15 0,0
11.10.2019 04:00:00 9,2 7,8 8,0 15,1 18,3 2 1 17 9 SSW 1023,1 15 0,0
11.10.2019 03:00:00 9,1 8,0 6,6 15,3 18,4 11 6 21 12 SSE 1023,5 15 0,0
11.10.2019 02:00:00 9,0 7,6 6,4 15,6 18,4 0 0 8 4 N 1023,7 3,3 0,0
11.10.2019 01:00:00 10,3 8,7 7,4 15,8 18,4 5 3 12 7 SE 1023,7 1,8 0,0
11.10.2019 00:00:00 11,2 8,8 8,6 16,0 18,4 7 4 11 6 SSE 1023,2 2,5 0,0
10.10.2019 23:00:00 11,7 9,4 8,7 16,2 18,4 4 2 17 9 SSW 1023,4 50 0,0
10.10.2019 22:00:00 12,2 9,6 8,7 16,4 18,4 11 6 15 8 ESE 1023,1 60 0,0
10.10.2019 21:00:00 13,5 9,5 9,6 16,6 18,4 0 0 6 3 N 1022,8 60 0,0
10.10.2019 20:00:00 14,7 9,3 10,8 16,7 18,4 0 0 10 5 N 1022,8 60 0,0
10.10.2019 19:00:00 16,1 9,7 15,4 16,8 18,4 2 1 8 4 ENE 1022,3 60 0,0
10.10.2019 18:00:00 16,4 9,1 17,1 16,7 18,4 2 1 10 5 NW 1022,4 60 0,0
10.10.2019 17:00:00 16,9 9,1 17,3 16,5 18,4 6 4 19 11 NNW 1022,5 60 0,0
10.10.2019 16:00:00 16,5 8,9 17,7 16,3 18,4 15 8 26 14 WNW 1022,6 30 0,0
10.10.2019 15:00:00 17,5 7,5 19,7 15,9 18,4 5 3 15 8 WNW 1022,3 25 0,0
10.10.2019 14:00:00 17,3 7,9 19,5 15,4 18,4 3 1 12 7 SSE 1022,6 50 0,0
10.10.2019 13:00:00 16,5 7,9 18,9 15,1 18,4 4 2 15 8 SW 1022,9 53 0,0
10.10.2019 12:00:00 16,6 8,3 19,9 14,8 18,4 4 2 15 8 S 1023,0 50 0,0
10.10.2019 11:00:00 13,9 9,3 12,9 14,7 18,4 9 5 15 8 SSW 1023,3 40 0,0
10.10.2019 10:00:00 11,8 8,6 11,4 14,7 18,4 11 6 20 11 S 1023,1 30 0,0
10.10.2019 09:00:00 11,0 8,7 10,2 14,9 18,5 16 9 22 12 SE 1022,0 40 0,0
10.10.2019 08:00:00 10,3 8,2 9,7 15,0 18,4 12 6 17 9 SSE 1021,7 40 0,0
10.10.2019 07:00:00 9,7 8,1 6,9 15,2 18,5 11 6 15 8 SE 1021,4 40 0,0
10.10.2019 06:00:00 9,6 7,5 7,7 15,4 18,5 7 4 11 6 S 1021,1 40 0,0
10.10.2019 05:00:00 10,8 7,8 9,1 15,5 18,5 7 4 16 8 S 1020,6 40 0,0
10.10.2019 04:00:00 12,3 8,6 11,4 15,7 18,5 7 4 14 8 SSW 1020,3 40 0,0
10.10.2019 03:00:00 12,1 9,1 11,0 15,9 18,5 9 5 17 9 S 1020,2 40 0,0
10.10.2019 02:00:00 12,5 9,7 10,1 16,1 18,5 8 4 15 8 SSE 1020,0 40 0,0
10.10.2019 01:00:00 12,3 10,4 10,3 16,2 18,5 7 4 14 8 W 1019,9 40 0,0
10.10.2019 00:00:00 13,5 10,8 10,5 16,4 18,5 3 2 10 6 NE 1019,8 40 0,0
09.10.2019 23:00:00 14,1 10,9 11,7 16,5 18,5 9 5 14 8 SW 1019,8 40 0,0
09.10.2019 22:00:00 14,8 11,2 13,7 16,6 18,5 11 6 23 12 SSE 1019,2 40 0,0
09.10.2019 21:00:00 15,6 11,6 14,5 16,8 18,5 11 6 20 11 S 1019,0 40 0,0
09.10.2019 20:00:00 16,1 11,3 14,9 16,8 18,5 9 5 17 9 SSE 1018,4 40 0,0

tt = temperature
td = dewpoint
tt 5cm = temperature 5cm
tt -20cm = temperature -20cm
tt -100cm = temperature -100cm
ff = wind speed
fx = gusts
dd = wind direction
ppp = reduced air pressure
vv = visibility
rr = precipitation

Next stations